User: anonymous   Login
Location: Unspecified
(0.0000°N, 0.0000°E)
Time: 00:49:32
(UTC+00:00)
Language:

STARLINK-5640 - Orbit

View from above orbital plane
View from above orbital plane
View from above satellite
View from above satellite

Ground track
Ground track

The orbit is defined by the following mean orbital elements,

1 55436U          26145.37098583 +.00000000 +00000-0 +30815-4 0 00008
2 55436  69.9991 271.1571 0003075 269.8124  90.2683 14.98339496    03
Epoch (UTC): 25 May 2026 08:54:13
Eccentricity: 0.0003075
inclination: 69.9991°
perigee height: 570 km
apogee height: 574 km
right ascension of ascending node: 271.1571°
argument of perigee: 269.8124°
revolutions per day: 14.98339496
mean anomaly at epoch: 90.2683°

The dashed part of the orbit path shows where the satellite is in the earth's shadow,  

DLR